• In Österreich
  • Länderverzeichnis
  • Für 7 Tage
  • Wassertemperatur
  • Satellitenkarten
  • Wetterkarte
  • News
  • Widgets
  • user-avatar
    Anmelden

    Stündliche Wetter Kerkira

    Heute, 23 September, Sonntag

    Zeit Temperatur Niederschläge Wind Luftdruck Luftfeuchtigkeit
    00:00 +24°C° 0 mm 1 m/S 763 mmHg 79%
    01:00 +24°C° 0 mm 1 m/S 763 mmHg 79%
    02:00 +23°C° 0 mm 1 m/S 763 mmHg 78%
    03:00 +23°C° 0 mm 1 m/S 763 mmHg 77%
    04:00 +23°C° 0 mm 1 m/S 763 mmHg 77%
    05:00 +24°C° 0 mm 1 m/S 764 mmHg 72%
    06:00 +25°C° 0 mm 1 m/S 764 mmHg 67%
    07:00 +26°C° 0 mm 1 m/S 764 mmHg 62%
    08:00 +28°C° 0 mm 1 m/S 764 mmHg 55%
    09:00 +30°C° 0 mm 1 m/S 764 mmHg 49%
    10:00 +32°C° 0 mm 1 m/S 764 mmHg 42%
    11:00 +34°C° 0 mm 2 m/S 764 mmHg 41%
    12:00 +34°C° 0 mm 2 m/S 764 mmHg 40%
    13:00 +35°C° 0 mm 3 m/S 764 mmHg 39%
    14:00 +34°C° 0 mm 3 m/S 764 mmHg 42%
    15:00 +33°C° 0 mm 3 m/S 763 mmHg 45%
    16:00 +33°C° 0 mm 3 m/S 763 mmHg 47%
    17:00 +30°C° 0 mm 2 m/S 763 mmHg 55%
    18:00 +28°C° 0 mm 2 m/S 763 mmHg 62%
    19:00 +26°C° 0 mm 2 m/S 763 mmHg 69%
    20:00 +26°C° 0 mm 2 m/S 763 mmHg 70%
    21:00 +25°C° 0 mm 1 m/S 763 mmHg 71%
    22:00 +25°C° 0 mm 1 m/S 763 mmHg 73%
    23:00 +25°C° 0 mm 1 m/S 763 mmHg 74%

    Morgen, 24 September, Montag

    Zeit Temperatur Niederschläge Wind Luftdruck Luftfeuchtigkeit
    00:00 +24°C° 0 mm 1 m/S 763 mmHg 76%
    01:00 +24°C° 0 mm 1 m/S 763 mmHg 77%
    02:00 +24°C° 0 mm 1 m/S 763 mmHg 79%
    03:00 +23°C° 0 mm 1 m/S 762 mmHg 81%
    04:00 +23°C° 0 mm 1 m/S 762 mmHg 83%
    05:00 +24°C° 0 mm 2 m/S 762 mmHg 79%
    06:00 +24°C° 0 mm 2 m/S 762 mmHg 75%
    07:00 +25°C° 0 mm 2 m/S 762 mmHg 71%
    08:00 +27°C° 0 mm 2 m/S 762 mmHg 63%
    09:00 +29°C° 0 mm 3 m/S 762 mmHg 55%
    10:00 +30°C° 0 mm 3 m/S 761 mmHg 47%
    11:00 +31°C° 0 mm 3 m/S 761 mmHg 46%
    12:00 +31°C° 0 mm 3 m/S 761 mmHg 46%
    13:00 +33°C° 0 mm 3 m/S 760 mmHg 45%
    14:00 +31°C° 0 mm 3 m/S 760 mmHg 48%
    15:00 +31°C° 0 mm 3 m/S 759 mmHg 52%
    16:00 +30°C° 0 mm 2 m/S 759 mmHg 56%
    17:00 +28°C° 0 mm 2 m/S 759 mmHg 65%
    18:00 +27°C° 0 mm 1 m/S 760 mmHg 74%
    19:00 +25°C° 0 mm 1 m/S 760 mmHg 83%
    20:00 +25°C° 0 mm 1 m/S 761 mmHg 84%
    21:00 +25°C° 0 mm 1 m/S 761 mmHg 85%
    22:00 +24°C° 0 mm 1 m/S 761 mmHg 86%
    23:00 +24°C° 0 mm 1 m/S 762 mmHg 84%

    übermorgen, 25 September, Dienstag

    Zeit Temperatur Niederschläge Wind Luftdruck Luftfeuchtigkeit
    00:00 +24°C° 0 mm 2 m/S 762 mmHg 83%
    01:00 +23°C° 0 mm 2 m/S 762 mmHg 81%
    02:00 +22°C° 0 mm 3 m/S 762 mmHg 78%
    03:00 +22°C° 0 mm 4 m/S 762 mmHg 74%
    04:00 +21°C° 0 mm 4 m/S 762 mmHg 70%
    05:00 +22°C° 0 mm 5 m/S 763 mmHg 63%
    06:00 +22°C° 0 mm 5 m/S 763 mmHg 57%
    07:00 +22°C° 0 mm 5 m/S 763 mmHg 50%
    08:00 +25°C° 0 mm 5 m/S 763 mmHg 44%
    09:00 +27°C° 0 mm 4 m/S 764 mmHg 39%
    10:00 +29°C° 0 mm 4 m/S 764 mmHg 33%
    11:00 +30°C° 0 mm 4 m/S 764 mmHg 32%
    12:00 +32°C° 0 mm 5 m/S 764 mmHg 32%
    13:00 +33°C° 0 mm 5 m/S 764 mmHg 31%
    14:00 +32°C° 0 mm 6 m/S 764 mmHg 31%
    15:00 +32°C° 0 mm 7 m/S 763 mmHg 32%
    16:00 +30°C° 0 mm 7 m/S 763 mmHg 32%
    17:00 +28°C° 0 mm 7 m/S 764 mmHg 35%
    18:00 +26°C° 0 mm 7 m/S 764 mmHg 37%
    19:00 +23°C° 0 mm 6 m/S 765 mmHg 39%
    20:00 +22°C° 0 mm 6 m/S 765 mmHg 37%
    21:00 +21°C° 0 mm 6 m/S 766 mmHg 35%
    22:00 +20°C° 0 mm 6 m/S 766 mmHg 32%
    23:00 +19°C° 0 mm 5 m/S 767 mmHg 32%

    26 September, Mittwoch

    Zeit Temperatur Niederschläge Wind Luftdruck Luftfeuchtigkeit
    00:00 +17°C° 0 mm 5 m/S 767 mmHg 32%
    01:00 +16°C° 0 mm 5 m/S 767 mmHg 31%
    02:00 +15°C° 0 mm 5 m/S 767 mmHg 32%
    03:00 +14°C° 0 mm 5 m/S 767 mmHg 32%
    04:00 +14°C° 0 mm 5 m/S 768 mmHg 32%
    05:00 +14°C° 0 mm 5 m/S 768 mmHg 32%
    06:00 +14°C° 0 mm 5 m/S 768 mmHg 33%
    07:00 +14°C° 0 mm 5 m/S 769 mmHg 33%
    08:00 +17°C° 0 mm 5 m/S 769 mmHg 30%
    09:00 +20°C° 0 mm 4 m/S 769 mmHg 26%
    10:00 +22°C° 0 mm 4 m/S 769 mmHg 23%
    11:00 +22°C° 0 mm 4 m/S 769 mmHg 22%
    12:00 +24°C° 0 mm 3 m/S 769 mmHg 20%
    13:00 +25°C° 0 mm 3 m/S 769 mmHg 18%
    14:00 +25°C° 0 mm 3 m/S 769 mmHg 18%
    15:00 +24°C° 0 mm 3 m/S 769 mmHg 18%
    16:00 +24°C° 0 mm 3 m/S 769 mmHg 17%
    17:00 +21°C° 0 mm 3 m/S 769 mmHg 20%
    18:00 +19°C° 0 mm 4 m/S 770 mmHg 22%
    19:00 +17°C° 0 mm 4 m/S 770 mmHg 24%
    20:00 +17°C° 0 mm 4 m/S 770 mmHg 26%
    21:00 +15°C° 0 mm 4 m/S 771 mmHg 28%
    22:00 +14°C° 0 mm 4 m/S 771 mmHg 30%
    23:00 +14°C° 0 mm 4 m/S 771 mmHg 32%

    27 September, Donnerstag

    Zeit Temperatur Niederschläge Wind Luftdruck Luftfeuchtigkeit
    00:00 +13°C° 0 mm 4 m/S 771 mmHg 33%
    01:00 +13°C° 0 mm 4 m/S 770 mmHg 35%
    02:00 +12°C° 0 mm 4 m/S 770 mmHg 36%
    03:00 +12°C° 0 mm 4 m/S 770 mmHg 37%
    04:00 +12°C° 0 mm 3 m/S 770 mmHg 38%
    05:00 +12°C° 0 mm 3 m/S 770 mmHg 37%
    06:00 +13°C° 0 mm 3 m/S 770 mmHg 36%
    07:00 +14°C° 0 mm 3 m/S 769 mmHg 34%
    08:00 +17°C° 0 mm 3 m/S 769 mmHg 28%
    09:00 +20°C° 0 mm 2 m/S 769 mmHg 22%
    10:00 +23°C° 0 mm 2 m/S 768 mmHg 16%
    11:00 +24°C° 0 mm 3 m/S 768 mmHg 15%
    12:00 +26°C° 0 mm 4 m/S 767 mmHg 14%
    13:00 +27°C° 0 mm 5 m/S 766 mmHg 14%
    14:00 +26°C° 0 mm 5 m/S 766 mmHg 15%
    15:00 +26°C° 0 mm 6 m/S 765 mmHg 16%
    16:00 +26°C° 0 mm 7 m/S 765 mmHg 17%
    17:00 +23°C° 0 mm 7 m/S 765 mmHg 19%
    18:00 +21°C° 0 mm 6 m/S 765 mmHg 22%
    19:00 +19°C° 0 mm 6 m/S 765 mmHg 25%
    20:00 +17°C° 0 mm 6 m/S 765 mmHg 26%
    21:00 +16°C° 0 mm 5 m/S 765 mmHg 27%
    22:00 +16°C° 0 mm 5 m/S 764 mmHg 28%
    23:00 +15°C° 0 mm 5 m/S 764 mmHg 29%

    28 September, Freitag

    Zeit Temperatur Niederschläge Wind Luftdruck Luftfeuchtigkeit
    00:00 +15°C° 0 mm 4 m/S 764 mmHg 30%
    01:00 +14°C° 0 mm 4 m/S 764 mmHg 31%
    02:00 +14°C° 0 mm 4 m/S 764 mmHg 33%
    03:00 +14°C° 0 mm 4 m/S 763 mmHg 34%
    04:00 +13°C° 0 mm 4 m/S 763 mmHg 36%
    05:00 +14°C° 0 mm 4 m/S 763 mmHg 35%
    06:00 +15°C° 0 mm 4 m/S 763 mmHg 34%
    07:00 +17°C° 0 mm 4 m/S 763 mmHg 34%
    08:00 +19°C° 0 mm 3 m/S 763 mmHg 28%
    09:00 +22°C° 0 mm 3 m/S 763 mmHg 22%
    10:00 +25°C° 0 mm 3 m/S 763 mmHg 16%
    11:00 +26°C° 0 mm 2 m/S 762 mmHg 16%
    12:00 +27°C° 0 mm 2 m/S 762 mmHg 15%
    13:00 +28°C° 0 mm 2 m/S 762 mmHg 15%
    14:00 +28°C° 0 mm 2 m/S 762 mmHg 18%
    15:00 +27°C° 0 mm 3 m/S 761 mmHg 20%
    16:00 +27°C° 0 mm 3 m/S 761 mmHg 23%
    17:00 +25°C° 0 mm 3 m/S 761 mmHg 26%
    18:00 +22°C° 0 mm 3 m/S 761 mmHg 30%
    19:00 +20°C° 0 mm 3 m/S 761 mmHg 34%
    20:00 +19°C° 0 mm 3 m/S 761 mmHg 34%
    21:00 +19°C° 0 mm 3 m/S 761 mmHg 33%
    22:00 +18°C° 0 mm 3 m/S 761 mmHg 33%
    23:00 +18°C° 0 mm 2 m/S 761 mmHg 32%
    Mehr zeigen